This is the latest recevied weather packets stored in our database for station/object WX5HOT. If no packets are shown the sender has not sent any weather packets the latest 10 day(s).
| Time | Temp. | Humidity | Pressure | Rain* | Wind** | Luminosity | Snow |
|---|---|---|---|---|---|---|---|
| 1777729212 | 13.89° C | 52% | 1070.3 hPa | 0 mm | - | 371 W/m² | - |
| 1777728909 | 13.89° C | 52% | 1070.4 hPa | 0 mm | - | 349 W/m² | - |
| 1777728606 | 13.89° C | 51% | 1070.2 hPa | 0 mm | - | 329 W/m² | - |
| 1777728303 | 13.89° C | 48% | 1070.2 hPa | 0 mm | - | 309 W/m² | - |
| 1777728001 | 13.89° C | 48% | 1070.1 hPa | 0 mm | - | 289 W/m² | - |
| 1777727698 | 13.89° C | 46% | 1070.1 hPa | 0 mm | - | 274 W/m² | - |
| 1777727394 | 13.89° C | 48% | 1070.2 hPa | 0 mm | - | 254 W/m² | - |
| 1777727091 | 13.89° C | 46% | 1070 hPa | 0 mm | - | 233 W/m² | - |
| 1777726789 | 13.33° C | 47% | 1069.9 hPa | 0 mm | - | 214 W/m² | - |
| 1777726485 | 13.33° C | 46% | 1069.9 hPa | 0 mm | - | 195 W/m² | - |
| 1777726183 | 12.78° C | 45% | 1069.7 hPa | 0 mm | - | 177 W/m² | - |
| 1777725879 | 12.78° C | 47% | 1069.7 hPa | 0 mm | - | 158 W/m² | - |
| 1777725577 | 12.78° C | 46% | 1069.8 hPa | 0 mm | - | 142 W/m² | - |
| 1777725274 | 12.78° C | 47% | 1069.5 hPa | 0 mm | - | 124 W/m² | - |
| 1777724971 | 12.78° C | 46% | 1069.4 hPa | 0 mm | - | 109 W/m² | - |
| 1777724667 | 12.22° C | 47% | 1069.4 hPa | 0 mm | - | 95 W/m² | - |
| 1777724366 | 12.22° C | 46% | 1069.5 hPa | 0 mm | - | 81 W/m² | - |
| 1777724062 | 12.22° C | 47% | 1069.3 hPa | 0 mm | - | 68 W/m² | - |
| 1777723760 | 12.22° C | 47% | 1069.3 hPa | 0 mm | - | 57 W/m² | - |
| 1777723456 | 12.22° C | 47% | 1069.2 hPa | 0 mm | - | 47 W/m² | - |
| 1777723153 | 12.22° C | 48% | 1069.2 hPa | 0 mm | - | 38 W/m² | - |
| 1777722850 | 11.67° C | 48% | 1069 hPa | 0 mm | - | 31 W/m² | - |
| 1777722546 | 11.67° C | 50% | 1069 hPa | 0 mm | - | 24 W/m² | - |
| 1777722243 | 11.67° C | 51% | 1068.9 hPa | 0 mm | - | 19 W/m² | - |
| 1777721940 | 11.11° C | 53% | 1068.8 hPa | 0 mm | - | 14 W/m² | - |
* Rain latest hour (hover to see other rain measurements)
** Current wind speed in m/s (hover to see current wind gust speed)